CW1084 Weather Reports


Display with metric or nautical units.
time (UTC)temp
F
wind
direction
speed
MPH
gust
MPH
rain 1hr
in
rain 24hr
in
rain mn
in
humidity
%
barometer
mb
20260905045051 78 229 1.0 6.0 0.00 1.23 0.00 100 1010.1
20260905044538 78 229 1.0 5.0 0.00 1.26 0.00 100 1010.1
20260905044033 78 229 1.0 6.0 0.00 1.26 0.00 100 1010.1
20260905043530 78 229 1.0 6.0 0.00 1.27 0.00 100 1010.1
20260905043021 78 227 0.0 6.0 0.00 1.34 0.00 100 1010.1
20260905042523 78 227 0.0 4.0 0.00 1.35 0.00 100 1010.2
20260905042237 78 227 0.0 4.0 0.00 1.35 0.00 100 1010.3
20260905041506 78 227 0.0 3.0 0.00 1.35 0.00 100 1010.3
20260905041000 78 227 0.0 2.0 0.00 1.35 0.00 100 1010.4
20260905040455 78 227 0.0 0.0 0.00 1.35 0.00 100 1010.5
20260905035939 78 227 0.0 0.0 0.00 1.35 1.35 100 1010.5
20260905035440 78 227 0.0 0.0 0.00 1.35 1.35 100 1010.4
20260905034920 78 227 0.0 0.0 0.00 1.35 1.35 100 1010.4
20260905034356 78 227 0.0 0.0 0.00 1.35 1.35 100 1010.4
20260905033853 78 227 0.0 0.0 0.00 1.35 1.35 100 1010.5
20260905033556 78 227 0.0 0.0 0.00 1.35 1.35 100 1010.6
20260905032838 78 227 0.0 0.0 0.00 1.35 1.35 100 1010.5
20260905032550 78 227 0.0 0.0 0.00 1.35 1.35 100 1010.5
20260905031825 78 227 0.0 0.0 0.00 1.35 1.35 100 1010.6
20260905031310 78 227 0.0 0.0 0.00 1.35 1.35 100 1010.6
20260905030805 78 227 0.0 0.0 0.00 1.35 1.35 100 1010.5
20260905030259 79 227 0.0 0.0 0.00 1.35 1.35 100 1010.4
20260905025756 79 227 0.0 0.0 0.00 1.35 1.35 100 1010.4
20260905025249 79 227 0.0 0.0 0.00 1.35 1.35 100 1010.6
20260905024741 79 227 0.0 0.0 0.00 1.35 1.35 100 1010.7
20260905024509 79 227 0.0 0.0 0.00 1.35 1.35 100 1010.8
20260905023711 79 227 0.0 0.0 0.00 1.35 1.35 100 1010.7
20260905023206 79 227 0.0 0.0 0.00 1.35 1.35 100 1010.7
20260905022708 79 227 0.0 0.0 0.00 1.35 1.35 100 1011.0
20260905022617 79 227 0.0 0.0 0.00 1.35 1.35 100 1010.9
20260905021849 79 227 0.0 0.0 0.00 1.35 1.35 100 1010.9
20260905021101 79 227 0.0 0.0 0.00 1.35 1.35 100 1010.8
20260905020555 79 227 0.0 0.0 0.00 1.35 1.35 100 1010.9
20260905020100 79 227 0.0 0.0 0.00 1.35 1.35 100 1010.8
20260905015530 79 227 0.0 0.0 0.00 1.35 1.35 100 1010.7
20260905015237 79 227 0.0 2.0 0.00 1.35 1.35 100 1010.7
20260905014510 79 227 0.0 2.0 0.00 1.35 1.35 100 1010.5
20260905013958 79 227 0.0 0.0 0.00 1.35 1.35 100 1010.4
20260905013453 80 227 0.0 0.0 0.00 1.35 1.35 100 1010.5
20260905012947 80 227 0.0 0.0 0.00 1.35 1.35 100 1010.6
20260905012440 80 227 0.0 0.0 0.00 1.35 1.35 100 1010.6
20260905011909 80 227 0.0 0.0 0.00 1.35 1.35 100 1010.5
20260905011415 80 227 0.0 0.0 0.00 1.35 1.35 100 1010.5
20260905010855 80 227 0.0 0.0 0.00 1.35 1.35 100 1010.4
20260905010413 80 227 0.0 0.0 0.00 1.35 1.35 100 1010.4
20260905005857 81 227 0.0 0.0 0.00 1.35 1.35 100 1010.4
20260905005350 81 227 0.0 0.0 0.00 1.35 1.35 100 1010.4
20260905004846 81 227 0.0 0.0 0.00 1.35 1.35 100 1010.3
20260905004341 81 227 0.0 0.0 0.00 1.35 1.35 100 1010.3
20260905003841 81 227 0.0 0.0 0.00 1.35 1.35 100 1010.3
20260905003554 81 227 0.0 0.0 0.00 1.35 1.35 100 1010.4
20260905002828 82 227 0.0 2.0 0.00 1.35 1.35 100 1010.4
20260905002305 82 227 0.0 2.0 0.00 1.35 1.35 100 1010.4
20260905001750 82 227 0.0 0.0 0.00 1.35 1.35 100 1010.1
20260905001256 82 227 0.0 0.0 0.00 1.35 1.35 100 1010.1
20260905000743 82 227 0.0 0.0 0.00 1.35 1.35 100 1010.1
20260905000243 82 227 0.0 0.0 0.00 1.35 1.35 100 1010.1
20260905000233 83 227 0.0 0.0 0.00 1.35 1.35 100 1009.9
20260904235236 83 227 0.0 0.0 0.00 1.35 1.35 100 1009.9
20260904234724 83 227 0.0 0.0 0.00 1.35 1.35 100 1009.8
20260904234222 83 227 0.0 0.0 0.00 1.35 1.35 100 1009.7
20260904233720 84 227 0.0 0.0 0.00 1.35 1.35 100 1009.6
20260904233216 84 227 0.0 0.0 0.00 1.35 1.35 100 1009.6
20260904232706 84 227 0.0 0.0 0.00 1.35 1.35 100 1009.5
20260904232209 85 227 0.0 0.0 0.00 1.35 1.35 100 1009.5
20260904231713 85 227 0.0 0.0 0.00 1.35 1.35 100 1009.6
20260904231431 85 227 0.0 1.0 0.00 1.35 1.35 100 1009.6
20260904230925 86 227 0.0 1.0 0.00 1.35 1.35 100 1009.5
20260904230422 86 227 0.0 0.0 0.00 1.35 1.35 100 1009.6
20260904225616 87 227 0.0 0.0 0.00 1.35 1.35 100 1009.7
20260904225117 87 227 0.0 0.0 0.00 1.35 1.35 100 1009.7
20260904224604 87 227 0.0 0.0 0.00 1.35 1.35 100 1009.8
20260904224106 88 227 0.0 0.0 0.00 1.35 1.35 100 1009.9
20260904223534 88 227 0.0 0.0 0.00 1.35 1.35 100 1010.1
20260904223036 89 227 0.0 0.0 0.00 1.35 1.35 100 1010.4
20260904222741 89 227 0.0 3.0 0.00 1.35 1.35 100 1010.5
20260904221950 89 227 0.0 3.0 0.00 1.35 1.35 100 1010.7
20260904221454 89 227 0.0 0.0 0.00 1.35 1.35 100 1010.9
20260904221213 90 227 0.0 0.0 0.00 1.35 1.35 100 1010.9
20260904220713 90 227 0.0 0.0 0.00 1.35 1.35 100 1010.7
20260904215919 90 227 0.0 0.0 0.00 1.35 1.35 100 1010.8
20260904215408 90 227 0.0 0.0 0.00 1.35 1.35 100 1011.0
20260904215142 90 227 0.0 0.0 0.00 1.35 1.35 100 1011.0
20260904214357 90 227 0.0 0.0 0.00 1.35 1.35 100 1010.7
20260904213849 90 227 0.0 0.0 0.00 1.35 1.35 100 1010.8
20260904213338 90 227 0.0 0.0 0.00 1.35 1.35 100 1010.9
20260904212837 91 227 0.0 0.0 0.00 1.35 1.35 100 1010.8
20260904212316 90 227 0.0 0.0 0.00 1.35 1.35 100 1010.6
20260904211808 89 227 0.0 0.0 0.00 1.35 1.35 100 1010.5
20260904211302 89 227 0.0 0.0 0.00 1.35 1.35 100 1010.6
20260904210800 89 227 0.0 0.0 0.00 1.35 1.35 100 1010.7
20260904210258 89 227 0.0 0.0 0.00 1.35 1.35 100 1010.8
20260904205741 89 227 0.0 0.0 0.00 1.35 1.35 100 1010.6
20260904205242 89 227 0.0 0.0 0.00 1.35 1.35 100 1010.4
20260904204737 90 227 0.0 0.0 0.00 1.35 1.35 3 1010.3
20260904204228 90 227 0.0 0.0 0.00 1.35 1.35 7 1010.6
20260904203719 91 227 0.0 0.0 0.00 1.35 1.35 8 1010.5
20260904203212 91 227 0.0 0.0 0.00 1.35 1.35 12 1010.6
20260904202657 91 227 0.0 0.0 0.00 1.35 1.35 16 1010.4
20260904202157 92 227 0.0 0.0 0.00 1.35 1.35 19 1010.5
20260904201648 92 227 0.0 0.0 0.00 1.35 1.35 20 1010.3
20260904201140 93 227 0.0 0.0 0.00 1.35 1.35 19 1010.5
20260904200640 93 227 0.0 2.0 0.00 1.35 1.35 17 1010.5
20260904200121 93 227 0.0 2.0 0.00 1.35 1.35 18 1010.7
20260904195855 93 227 0.0 2.0 0.00 1.35 1.35 17 1010.7
20260904195607 93 227 0.0 2.0 0.00 1.35 1.35 17 1010.7
20260904195042 92 227 0.0 4.0 0.00 1.35 1.35 17 1010.7
20260904194030 92 227 0.0 4.0 0.00 1.35 1.35 17 1010.8
20260904193513 92 227 0.0 2.0 0.00 1.35 1.35 15 1010.8
20260904193007 92 227 0.0 0.0 0.00 1.35 1.35 13 1010.9
20260904192511 92 227 0.0 5.0 0.00 1.35 1.35 12 1010.8
20260904192007 92 227 0.0 5.0 0.00 1.35 1.35 12 1010.9
20260904191504 91 229 0.0 4.0 0.00 1.35 1.35 10 1010.9
20260904190949 0 0.0 0.0 0.00 1.35 1.35 1011.0
20260904190409 0 0.0 0.0 0.00 1.35 1.35 1011.1
20260904185906 0 0.0 0.0 0.00 1.35 1.35 1011.2
20260904185634 0 0.0 0.0 0.00 1.35 1.35 1011.2
20260904184857 0 0.0 0.0 0.00 1.35 1.35 1011.3
20260904184334 0 0.0 0.0 0.00 1.35 1.35 1011.3
20260904183807 0 0.0 0.0 0.00 1.35 1.35 1011.3
20260904183309 0 0.0 0.0 0.00 1.35 1.35 1011.5
20260904182759 0 0.0 0.0 0.00 1.35 1.35 1011.6
20260904182252 0 0.0 0.0 0.00 1.35 1.35 1011.7
20260904181710 0 0.0 0.0 0.00 1.35 1.35 1011.8
20260904181200 0 0.0 0.0 0.00 1.35 1.35 1011.8
20260904180641 0 0.0 0.0 0.00 1.35 1.35 1011.9
20260904180105 0 0.0 0.0 0.00 1.35 1.35 1011.9
20260904175836 0 0.0 0.0 0.00 1.35 1.35 1011.9
20260904175108 0 0.0 0.0 0.00 1.35 1.35 1011.8
20260904174559 0 0.0 0.0 0.00 1.35 1.35 1011.9
20260904174051 0 0.0 0.0 0.00 1.35 1.35 1012.0
20260904173737 0 0.0 0.0 0.00 1.35 1.35 1012.1
20260904172920 0 0.0 0.0 0.00 1.35 1.35 1012.1
20260904172407 0 0.0 0.0 0.00 1.35 1.35 1012.1
20260904171847 0 0.0 0.0 0.00 1.35 1.35 1012.0
20260904171318 0 0.0 0.0 0.00 1.35 1.35 1012.0
20260904170816 0 0.0 0.0 0.00 1.35 1.35 1012.0
20260904170257 0 0.0 0.0 0.00 1.35 1.35 1012.1
20260904165755 0 0.0 0.0 0.00 1.35 1.35 1012.1
20260904165518 0 0.0 0.0 0.00 1.35 1.35 1012.2
20260904164922 0 0.0 0.0 0.00 1.35 1.35 1012.2
20260904164207 0 0.0 0.0 0.00 1.35 1.35 1012.2
20260904163659 0 0.0 0.0 0.00 1.35 1.35 1012.3
20260904163144 0 0.0 0.0 0.00 1.35 1.35 1012.3
20260904162834 0 0.0 0.0 0.00 1.35 1.35 1012.4
20260904162108 0 0.0 0.0 0.00 1.35 1.35 1012.3
20260904161606 0 0.0 0.0 0.00 1.35 1.35 1012.3
20260904161050 0 0.0 0.0 0.00 1.35 1.35 1012.3
20260904160551 0 0.0 0.0 0.00 1.35 1.35 1012.3
20260904160516 0 0.0 0.0 0.00 1.35 1.35 1012.3
20260904155529 0 0.0 0.0 0.00 1.35 1.35 1012.5
20260904155022 0 0.0 0.0 0.00 1.35 1.35 1012.6
20260904154517 0 0.0 0.0 0.00 1.35 1.35 1012.6
20260904154235 0 0.0 0.0 0.00 1.35 1.35 1012.5
20260904153459 0 0.0 0.0 0.00 1.35 1.35 1012.6
20260904153136 0 0.0 0.0 0.00 1.35 1.35 1012.7
20260904152410 0 0.0 0.0 0.00 1.35 1.35 1012.7
20260904151906 0 0.0 0.0 0.00 1.35 1.35 1012.6
20260904151359 0 0.0 0.0 0.00 1.35 1.35 1012.5
20260904150830 0 0.0 0.0 0.00 1.35 1.35 1012.5
20260904150310 0 0.0 0.0 0.00 1.35 1.35 1012.5
20260904145804 0 0.0 0.0 0.00 1.35 1.35 1012.6
20260904145312 0 0.0 0.0 0.00 1.35 1.35 1012.6
20260904145251 0 0.0 0.0 0.00 1.35 1.35 1012.6
20260904144230 0 0.0 0.0 0.00 1.35 1.35 1012.6
20260904143950 0 0.0 0.0 0.00 1.35 1.35 1012.8
20260904143211 0 0.0 0.0 0.00 1.35 1.35 1012.7
20260904142658 0 0.0 0.0 0.00 1.35 1.35 1012.8
20260904142651 0 0.0 0.0 0.00 1.35 1.35 1012.9
20260904141615 0 0.0 0.0 0.00 1.35 1.35 1012.9
20260904141334 0 0.0 0.0 0.00 1.35 1.35 1012.7
20260904140557 0 0.0 0.0 0.00 1.35 1.35 1012.6
20260904140049 0 0.0 0.0 0.00 1.35 1.35 1012.6
20260904135741 0 0.0 0.0 0.00 1.35 1.35 1012.6
20260904135008 0 0.0 0.0 0.00 1.35 1.35 1012.6
20260904134501 0 0.0 0.0 0.00 1.35 1.35 1012.6
20260904133931 0 0.0 0.0 0.00 1.35 1.35 1012.6
20260904133434 0 0.0 0.0 0.00 1.35 1.35 1012.6
20260904132931 0 0.0 0.0 0.00 1.35 1.35 1012.6
20260904132404 0 0.0 0.0 0.00 1.35 1.35 1012.6
20260904132125 0 0.0 0.0 0.00 1.35 1.35 1012.7
20260904131351 0 0.0 0.0 0.00 1.35 1.35 1012.7
20260904130810 0 0.0 0.0 0.00 1.35 1.35 1012.6
20260904130303 0 0.0 0.0 0.00 1.35 1.35 1012.7
20260904125739 0 0.0 0.0 0.00 1.35 1.35 1012.6
20260904125210 0 0.0 0.0 0.00 1.35 1.35 1012.7
20260904124706 0 0.0 0.0 0.00 1.35 1.35 1012.6
20260904124347 0 0.0 0.0 0.00 1.35 1.35 1012.8
20260904123805 0 0.0 0.0 0.00 1.35 1.35 1012.7
20260904123046 0 0.0 0.0 0.00 1.35 1.35 1012.6
20260904122505 0 0.0 0.0 0.00 1.35 1.35 1012.7
20260904121918 0 0.0 0.0 0.00 1.35 1.35 1012.7
20260904121355 0 0.0 0.0 0.00 1.35 1.35 1013.0
20260904120841 0 0.0 0.0 0.00 1.35 1.35 1013.0
20260904120256 0 0.0 0.0 0.00 1.35 1.35 1013.0
20260904115939 0 0.0 0.0 0.00 1.35 1.35 1012.9
20260904115210 0 0.0 0.0 0.00 1.35 1.35 1013.1
20260904114914 0 0.0 0.0 0.00 1.35 1.35 1012.9
20260904114056 0 0.0 0.0 0.00 1.35 1.35 1012.9
20260904113540 0 0.0 0.0 0.00 1.35 1.35 1013.1
20260904113040 0 0.0 0.0 0.00 1.35 1.35 1013.0
20260904112511 0 0.0 0.0 0.00 1.35 1.35 1012.9
20260904112002 0 0.0 0.0 0.00 1.35 1.35 1013.0
20260904111726 0 0.0 0.0 0.00 1.35 1.35 1013.1
20260904111137 0 0.0 0.0 0.00 1.35 1.35 1012.9
20260904110411 73 280 0.0 0.0 0.00 1.35 1.35 100 1012.7
20260904105845 73 280 0.0 0.0 0.00 1.35 1.35 100 1012.5
20260904105340 73 280 0.0 0.0 0.00 1.35 1.35 100 1012.6
20260904104806 74 280 0.0 0.0 0.00 1.35 1.35 100 1012.1
20260904104540 74 280 0.0 0.0 0.00 1.35 1.35 100 1011.9
20260904104027 74 280 0.0 0.0 0.00 1.35 1.35 100 1011.6
20260904103301 74 280 0.0 0.0 0.00 1.35 1.35 100 1011.6
20260904102756 74 280 0.0 0.0 0.00 1.35 1.35 100 1011.6
20260904102248 74 280 0.0 0.0 0.00 1.35 1.35 100 1011.6
20260904101740 74 280 0.0 0.0 0.00 1.35 1.35 100 1011.6
20260904101237 74 280 0.0 0.0 0.00 1.35 1.35 100 1011.6
20260904100738 74 280 0.0 0.0 0.00 1.35 1.35 100 1011.6
20260904100227 74 280 0.0 0.0 0.00 1.35 1.35 100 1011.7
20260904095729 74 280 0.0 0.0 0.00 1.35 1.35 100 1011.6
20260904095448 74 280 0.0 0.0 0.00 1.35 1.35 100 1011.6
20260904094715 74 280 0.0 0.0 0.00 1.35 1.35 100 1011.7
20260904094154 74 280 0.0 0.0 0.00 1.35 1.35 100 1011.6
20260904093654 74 280 0.0 0.0 0.00 1.35 1.35 100 1011.7
20260904093416 74 280 0.0 0.0 0.00 1.35 1.35 100 1011.7
20260904092645 74 280 0.0 0.0 0.00 1.35 1.35 100 1011.7
20260904092141 74 280 0.0 0.0 0.00 1.35 1.35 100 1011.8
20260904091628 74 280 0.0 0.0 0.00 1.35 1.35 100 1011.7
20260904091121 74 280 0.0 0.0 0.00 1.35 1.35 100 1011.9
20260904090605 74 280 0.0 0.0 0.00 1.35 1.35 100 1011.9
20260904090342 74 280 0.0 0.0 0.00 1.35 1.35 100 1011.8
20260904085549 74 280 0.0 0.0 0.00 1.35 1.35 100 1011.8
20260904085051 74 280 0.0 0.0 0.00 1.35 1.35 100 1011.8
20260904084542 74 280 0.0 0.0 0.00 1.35 1.35 100 1011.8
20260904084042 74 280 0.0 0.0 0.00 1.35 1.35 100 1012.0
20260904083804 74 280 0.0 0.0 0.00 1.35 1.35 100 1011.8
20260904083237 74 280 0.0 0.0 0.00 1.35 1.35 100 1011.8
20260904082736 74 280 0.0 0.0 0.00 1.35 1.35 100 1011.7
20260904081952 74 280 0.0 0.0 0.00 1.35 1.35 100 1011.7
20260904081451 74 280 0.0 0.0 0.00 1.35 1.35 100 1011.7
20260904080939 74 280 0.0 0.0 0.01 1.35 1.35 100 1011.7
20260904080436 74 280 0.0 0.0 0.01 1.35 1.35 100 1011.8
20260904075940 74 280 0.0 0.0 0.01 1.35 1.35 100 1011.8
20260904075709 74 280 0.0 0.0 0.01 1.35 1.35 100 1011.9
20260904075203 74 280 0.0 0.0 0.01 1.35 1.35 100 1011.9
20260904074427 74 280 0.0 0.0 0.01 1.35 1.35 100 1012.1
20260904073929 74 280 0.0 0.0 0.01 1.35 1.35 100 1012.0
20260904073644 74 280 0.0 0.0 0.01 1.35 1.35 100 1011.8
20260904073134 74 280 0.0 0.0 0.01 1.35 1.35 100 1011.8
20260904072408 74 280 0.0 0.0 0.01 1.35 1.35 100 1011.8
20260904071900 74 280 0.0 0.0 0.01 1.35 1.35 100 1011.8
20260904071359 74 281 0.0 0.0 0.01 1.35 1.35 100 1011.6
20260904070857 74 280 0.0 0.0 0.00 1.34 1.34 100 1011.5
20260904070416 74 280 0.0 0.0 0.00 1.34 1.34 100 1011.6
20260904070354 74 280 0.0 0.0 0.00 1.34 1.34 100 1011.4
20260904065339 74 281 0.0 0.0 0.01 1.34 1.34 100 1011.8
20260904065121 74 281 0.0 0.0 0.02 1.34 1.34 100 1011.8
20260904064614 74 280 0.0 3.0 0.04 1.34 1.34 100 1011.6
20260904064108 74 280 0.0 6.0 0.05 1.34 1.34 100 1011.8
20260904063338 74 282 0.0 6.0 0.08 1.34 1.34 100 1011.7
20260904063107 74 196 0.0 5.0 0.10 1.34 1.34 100 1011.3
20260904062338 75 196 0.0 5.0 0.18 1.34 1.34 100 1011.3
20260904061826 75 197 1.0 5.0 0.33 1.34 1.34 100 1011.7
20260904061608 75 198 1.0 5.0 0.50 1.34 1.34 100 1011.9
20260904060823 75 199 0.0 4.0 0.80 1.34 1.34 100 1012.2
20260904060334 75 160 0.0 3.0 1.08 1.34 1.34 100 1012.2
20260904055820 75 161 0.0 3.0 1.16 1.34 1.34 100 1012.8
20260904055324 75 192 0.0 3.0 1.20 1.33 1.33 100 1013.1
20260904054809 76 86 0.0 1.0 1.21 1.31 1.32 100 1013.5
20260904054310 76 86 0.0 0.0 1.21 1.30 1.30 100 1013.9
20260904053807 76 87 0.0 1.0 1.21 1.29 1.29 100 1014.5
20260904053524 76 86 0.0 1.0 1.22 1.26 1.26 100 1014.7
20260904052808 76 84 0.0 5.0 1.24 1.24 1.24 100 1014.3
20260904052308 77 84 1.0 5.0 1.16 1.16 1.18 100 1014.0
20260904051803 77 165 1.0 8.0 1.01 1.01 1.02 100 1014.1
20260904051250 78 24 2.0 13.0 0.78 0.78 0.80 100 1014.6
20260904051023 79 225 2.0 13.0 0.46 0.46 0.52 100 1015.1
20260904050252 80 245 0.0 8.0 0.26 0.26 0.28 100 1015.0
20260904050013 80 252 0.0 4.0 0.18 0.18 0.18 100 1014.2